Change the Weather History Date:

Tuesday, June 4, 2013

  Actual Average (KGON) Record (KGON)
Temperature  
Mean Temperature 64 °F -  
Max Temperature 73 °F 72 °F 84 °F (1971)
Min Temperature 54 °F 52 °F 42 °F (1957)
Degree Days  
Heating Degree Days 2    
Growing Degree Days 14 (Base 50)    
Moisture  
Dew Point 42 °F    
Average Humidity 48    
Maximum Humidity 83    
Minimum Humidity 35    
Precipitation  
Precipitation 0.00 in - - ()
Sea Level Pressure  
Sea Level Pressure 29.96 in    
Wind  
Wind Speed 11 mph (NW)    
Max Wind Speed 15 mph    
Max Gust Speed 25 mph    
Visibility 10 miles    
Events      
Averages and records for this station are not official NWS values.
T = Trace of Precipitation, MM = Missing Value Source: NWS Daily Summary

Daily Weather History Graph

Daily Weather History Graph

Search for Another Location

Airport or City:

Trip Planner

Search our weather history database for the weather conditions in past years. The results will help you decide how hot, cold, wet, or windy it might be!

Date:

Astronomy

Jun. 04, 2013 Rise Set
Actual Time 5:15 AM EDT 8:16 PM EDT
Civil Twilight 4:41 AM EDT 8:49 PM EDT
Nautical Twilight 3:59 AM EDT 9:32 PM EDT
Astronomical Twilight 3:09 AM EDT 10:22 PM EDT
Moon 2:45 AM EDT 4:41 PM EDT
Length of Visible Light 16h 08m
Length of Day
15h 01m
Waning Crescent, 14% of the Moon is Illuminated
Jun 4
Waning Crescent
Jun 8
New
Jun 16
First Quarter
Jun 23
Full
Jun 30
Last Quarter

Hourly Weather History & Observations

Time (EDT) Temp. Dew Point Humidity Pressure Visibility Wind Dir Wind Speed Gust Speed Precip Events Conditions
12:53 AM 63.0 °F 48.0 °F 58% 29.85 in 10.0 mi NNW 15.0 mph 21.9 mph N/A   Scattered Clouds
1:53 AM 61.0 °F 37.9 °F 42% 29.87 in 10.0 mi NNW 13.8 mph 21.9 mph N/A   Mostly Cloudy
2:53 AM 60.1 °F 34.0 °F 38% 29.87 in 10.0 mi NNW 12.7 mph 23.0 mph N/A   Overcast
3:53 AM 57.9 °F 36.0 °F 44% 29.88 in 10.0 mi NNW 11.5 mph 20.7 mph N/A   Overcast
4:53 AM 55.9 °F 37.9 °F 51% 29.90 in 10.0 mi NNW 10.4 mph - N/A   Clear
5:53 AM 55.0 °F 37.9 °F 53% 29.92 in 10.0 mi NNW 12.7 mph - N/A   Clear
6:53 AM 57.0 °F 39.0 °F 51% 29.93 in 10.0 mi NW 9.2 mph 17.3 mph N/A   Clear
7:53 AM 59.0 °F 41.0 °F 51% 29.94 in 10.0 mi NNW 12.7 mph 25.3 mph N/A   Clear
8:53 AM 61.0 °F 41.0 °F 48% 29.95 in 10.0 mi NNW 13.8 mph 25.3 mph N/A   Clear
9:53 AM 64.9 °F 42.1 °F 43% 29.95 in 10.0 mi NNW 11.5 mph 17.3 mph N/A   Clear
10:53 AM 66.0 °F 41.0 °F 40% 29.96 in 10.0 mi NW 9.2 mph 20.7 mph N/A   Clear
11:53 AM 68.0 °F 42.1 °F 39% 29.96 in 8.0 mi NNW 9.2 mph 18.4 mph N/A   Clear
12:53 PM 69.1 °F 41.0 °F 36% 29.97 in 10.0 mi NW 12.7 mph 21.9 mph N/A   Clear
1:53 PM 70.0 °F 42.1 °F 36% 29.96 in 10.0 mi NNW 9.2 mph 23.0 mph N/A   Clear
2:53 PM 72.0 °F 43.0 °F 35% 29.96 in 10.0 mi WNW 10.4 mph 16.1 mph N/A   Scattered Clouds
3:53 PM 72.0 °F 43.0 °F 35% 29.97 in 10.0 mi West 8.1 mph - N/A   Partly Cloudy
4:53 PM 69.1 °F 46.9 °F 45% 29.97 in 10.0 mi WSW 8.1 mph 17.3 mph N/A   Clear
5:53 PM 71.1 °F 46.0 °F 41% 29.97 in 10.0 mi WSW 6.9 mph - N/A   Clear
6:53 PM 71.1 °F 44.1 °F 38% 29.99 in 10.0 mi WNW 8.1 mph - N/A   Clear
7:53 PM 66.9 °F 45.0 °F 45% 30.02 in 10.0 mi Calm Calm - N/A   Clear
8:53 PM 62.1 °F 46.9 °F 58% 30.03 in 10.0 mi West 3.5 mph - N/A   Clear
9:53 PM 59.0 °F 46.9 °F 64% 30.06 in 10.0 mi Calm Calm - N/A   Clear
10:53 PM 55.9 °F 48.0 °F 75% 30.08 in 10.0 mi Calm Calm - N/A   Clear
11:53 PM 54.0 °F 48.9 °F 83% 30.09 in 10.0 mi Calm Calm - N/A   Clear